Weather in Studenets

Russia / Komi Republic     62°09′59″N   50°30′26″E
temp.,
°C
wind,
m/s
gust,
m/s
humid.,
%
clouds,
%
prec.,
mm/h
press.,
hPa
HPBL,
m
23 april, fri
fri2300:00+4ssw51187100 0.0 1018814
03:00+5ssw51088100 0.0 1018909
06:00+5ssw41086100 0.1 1019605
09:00+8ssw467173 0.1 1020909
12:00+11sw465537 0.0 10211495
15:00+14sw354113 0.0 10211964
18:00+12sse385280 0.0 1021418
21:00+9s3107069 0.0 1023345
24 april, sat
sat2400:00+6sse398277 0.0 1023216
03:00+4se278969 0.0 1023142
06:00+6se397526 0.0 1022240
09:00+11se47535 0.0 10211196
12:00+11sse465590 0.1 10201399
15:00+11se4750100 0.1 10191343
18:00+10ese485396 0.0 10181178
21:00+7e3866100 0.0 1017322
25 april, sun
sun2500:00+7ese41069100 0.0 1015632
03:00+6e41277100 0.0 1013698
06:00+6e51179100 0.0 1012890
09:00+8ese61170100 0.1 10101324
12:00+5ese51295100 0.4 1009867
15:00+8e51172100 0.6 10071268
18:00+7ese41077100 0.4 10061091
21:00+5e4895100 0.8 10051113
26 april, mon
mon2600:00+5e3797100 1.1 10031031
03:00+4ese2698100 2.3 1002922
06:00+2s3696100 1.4 1002442
09:00+4sse357295 1.6 10021130
12:00+6se3562100 0.2 10021195
15:00+6sse346689 0.7 10021024
18:00+3sse228366 0.4 1002425
21:00+2s119274 0.4 1002107
27 april, tue
tue2700:00+2sw129597 0.0 1002148
03:00+2wsw139692 0.0 1002287
06:00+2sw2490100 0.1 1002237
09:00+3sw2379100 0.1 1002492
12:00+4sw2377100 0.1 1002711
15:00+3sw2390100 0.1 1002519
18:00+2sw2392100 0.1 1002384
21:00+2wsw2497100 0.1 1002323